Weather History for Pecos, TX

Change the Weather History Date:

Thursday, October 20, 2011

  Actual Average Record
Temperature  
Mean Temperature 64 °F -  
Max Temperature 92 °F 78 °F 98 °F (2007)
Min Temperature 37 °F 45 °F 30 °F (1989)
Growing Degree Days 14 (Base 50)    
Moisture  
Dew Point 22 °F    
Average Humidity 26    
Maximum Humidity 48    
Minimum Humidity 9    
Precipitation  
Precipitation 0.00 in - - ()
Sea Level Pressure  
Sea Level Pressure 30.00 in    
Wind  
Wind Speed 4 mph (West)    
Max Wind Speed 23 mph    
Max Gust Speed 32 mph    
Visibility 10 miles    
Events      
Averages and records for this station are not official NWS values.
T = Trace of Precipitation, MM = Missing Value Source: NWS Daily Summary

Daily Weather History Graph

Daily Weather History Graph

Search for Another Location

Airport:

Trip Planner

Search our weather history database for the weather conditions in past years. The results will help you decide how hot, cold, wet, or windy it might be!

Date:

Astronomy

Oct. 20, 2011 Rise Set
Actual Time 8:00 AM CDT 7:16 PM CDT
Civil Twilight 7:35 AM CDT 7:41 PM CDT
Nautical Twilight 7:07 AM CDT 8:09 PM CDT
Astronomical Twilight 6:39 AM CDT 8:37 PM CDT
Moon 1:14 AM CDT (10/20) 3:03 PM CDT (10/20)
Length of Visible Light 12h 05m
Length of Day
11h 16m
Last Quarter, 44% of the Moon is Illuminated
Oct 20
Last Quarter
Oct 26
New
Nov 2
First Quarter
Nov 10
Full
Nov 18
Last Quarter

Hourly Weather History & Observations

Time (CDT) Temp. Windchill Dew Point Humidity Pressure Visibility Wind Dir Wind Speed Gust Speed Precip Events Conditions
12:15 AM 52.9 °F - 21.2 °F 29% 30.04 in 10.0 mi Calm Calm - N/A   Clear
12:35 AM 52.5 °F - 21.4 °F 30% 30.03 in 10.0 mi SSE 3.5 mph - N/A   Clear
12:55 AM 51.6 °F - 21.4 °F 31% 30.02 in 10.0 mi SSE 5.8 mph - N/A   Clear
1:35 AM 48.6 °F - 20.3 °F 33% 30.02 in 10.0 mi SSE 5.8 mph - N/A   Clear
1:55 AM 48.0 °F - 20.3 °F 33% 30.02 in 10.0 mi SE 3.5 mph - N/A   Clear
2:15 AM 46.9 °F - 20.1 °F 35% 30.02 in 10.0 mi Calm Calm - N/A   Clear
2:35 AM 45.7 °F 44.4 °F 19.6 °F 35% 30.02 in 10.0 mi SSE 3.5 mph - N/A   Clear
2:55 AM 43.0 °F 41.3 °F 18.3 °F 37% 30.02 in 10.0 mi South 3.5 mph - N/A   Clear
3:15 AM 40.8 °F - 16.3 °F 37% 30.02 in 10.0 mi Calm Calm - N/A   Clear
3:35 AM 39.9 °F - 16.0 °F 38% 30.01 in 10.0 mi Calm Calm - N/A   Clear
3:55 AM 39.9 °F - 16.2 °F 38% 30.00 in 10.0 mi Calm Calm - N/A   Clear
4:15 AM 39.4 °F - 16.2 °F 39% 30.00 in 10.0 mi Calm Calm - N/A   Clear
4:35 AM 37.9 °F - 14.4 °F 38% 30.00 in 10.0 mi Calm Calm - N/A   Clear
4:55 AM 37.0 °F - 15.1 °F 41% 30.00 in 10.0 mi Calm Calm - N/A   Clear
5:35 AM 38.5 °F - 14.7 °F 38% 30.00 in 10.0 mi Calm Calm - N/A   Clear
6:15 AM 38.1 °F 33.7 °F 18.7 °F 46% 30.00 in 10.0 mi WNW 5.8 mph - N/A   Clear
6:35 AM 38.8 °F 34.6 °F 19.8 °F 46% 30.00 in 10.0 mi WNW 5.8 mph - N/A   Clear
6:55 AM 39.2 °F 35.9 °F 19.4 °F 45% 30.00 in 7.0 mi WNW 4.6 mph - N/A   Clear
7:15 AM 39.2 °F 37.0 °F 19.9 °F 46% 30.01 in 7.0 mi WNW 3.5 mph - N/A   Clear
7:35 AM 39.0 °F 35.7 °F 20.7 °F 48% 30.02 in 10.0 mi NW 4.6 mph - N/A   Clear
7:55 AM 39.0 °F 35.7 °F 20.3 °F 47% 30.02 in 10.0 mi WNW 4.6 mph - N/A   Clear
8:15 AM 39.7 °F - 20.7 °F 46% 30.03 in 10.0 mi Calm Calm - N/A   Clear
8:35 AM 39.9 °F 37.8 °F 20.5 °F 46% 30.03 in 10.0 mi West 3.5 mph - N/A   Clear
8:55 AM 41.9 °F 40.0 °F 21.0 °F 43% 30.04 in 10.0 mi WSW 3.5 mph - N/A   Clear
9:15 AM 44.8 °F - 21.4 °F 40% 30.05 in 10.0 mi Calm Calm - N/A   Clear
9:35 AM 47.5 °F - 22.5 °F 37% 30.05 in 10.0 mi Calm Calm - N/A   Clear
9:55 AM 50.0 °F - 22.8 °F 34% 30.06 in 10.0 mi Calm Calm - N/A   Clear
10:15 AM 52.0 °F - 22.3 °F 31% 30.06 in 10.0 mi Calm Calm - N/A   Clear
10:35 AM 54.5 °F - 22.8 °F 29% 30.06 in 10.0 mi Calm Calm - N/A   Clear
10:55 AM 57.0 °F - 23.4 °F 27% 30.06 in 10.0 mi Calm Calm - N/A   Clear
11:15 AM 59.5 °F - 23.2 °F 25% 30.05 in 10.0 mi Calm Calm - N/A   Clear
11:35 AM 62.1 °F - 23.7 °F 23% 30.05 in 10.0 mi Calm Calm - N/A   Clear
11:55 AM 65.5 °F - 24.3 °F 21% 30.04 in 7.0 mi Calm Calm - N/A   Clear
12:15 PM 69.1 °F - 25.0 °F 19% 30.03 in 10.0 mi SW 3.5 mph - N/A   Clear
12:35 PM 71.8 °F - 25.2 °F 18% 30.02 in 10.0 mi Calm Calm - N/A   Clear
12:55 PM 74.7 °F - 25.9 °F 16% 30.01 in 10.0 mi Calm Calm - N/A   Clear
1:55 PM 86.5 °F - 28.6 °F 12% 29.96 in 10.0 mi SSW 4.6 mph - N/A   Clear
2:15 PM 89.2 °F - 28.4 °F 11% 29.95 in 10.0 mi WNW 16.1 mph 21.9 mph N/A   Clear
2:35 PM 90.5 °F - 27.9 °F 11% 29.94 in 10.0 mi West 10.4 mph 21.9 mph N/A   Clear
2:55 PM 90.7 °F - 27.9 °F 10% 29.93 in 10.0 mi West 15.0 mph - N/A   Clear
3:15 PM 91.9 °F - 28.2 °F 10% 29.93 in 10.0 mi West 20.7 mph 27.6 mph N/A   Clear
3:35 PM 92.1 °F - 27.1 °F 10% 29.93 in 10.0 mi West 23.0 mph 32.2 mph N/A   Clear
3:55 PM 91.9 °F - 26.6 °F 10% 29.93 in 7.0 mi West 16.1 mph 28.8 mph N/A   Clear
4:15 PM 91.9 °F - 25.7 °F 9% 29.93 in 10.0 mi West 19.6 mph 29.9 mph N/A   Clear
4:35 PM 91.6 °F - 24.8 °F 9% 29.93 in 10.0 mi West 21.9 mph 27.6 mph N/A   Clear
4:55 PM 91.0 °F - 24.3 °F 9% 29.93 in 10.0 mi West 20.7 mph 26.5 mph N/A   Clear
5:35 PM 90.1 °F - 24.4 °F 9% 29.93 in 10.0 mi West 20.7 mph - N/A   Clear
5:55 PM 89.6 °F - 24.3 °F 9% 29.93 in 10.0 mi West 15.0 mph - N/A   Clear
6:15 PM 88.9 °F - 24.4 °F 10% 29.93 in 10.0 mi WNW 10.4 mph - N/A   Clear
6:35 PM 87.8 °F - 24.4 °F 10% 29.93 in 10.0 mi West 8.1 mph - N/A   Clear
6:55 PM 86.4 °F - 24.3 °F 10% 29.94 in 10.0 mi West 8.1 mph - N/A   Clear
7:15 PM 83.1 °F - 24.1 °F 11% 29.95 in 10.0 mi West 6.9 mph - N/A   Clear
7:35 PM 78.8 °F - 23.2 °F 13% 29.96 in 10.0 mi West 6.9 mph - N/A   Clear
7:55 PM 75.7 °F - 23.5 °F 14% 29.97 in 10.0 mi West 6.9 mph - N/A   Clear
8:15 PM 73.4 °F - 22.1 °F 15% 29.97 in 10.0 mi West 8.1 mph - N/A   Clear
8:35 PM 70.0 °F - 21.0 °F 16% 29.98 in 10.0 mi WSW 8.1 mph - N/A   Clear
9:35 PM 66.6 °F - 21.0 °F 18% 29.99 in 10.0 mi WSW 6.9 mph - N/A   Clear
9:55 PM 66.2 °F - 21.7 °F 18% 29.99 in 10.0 mi WSW 8.1 mph - N/A   Clear
10:15 PM 67.6 °F - 21.4 °F 17% 30.00 in 10.0 mi WSW 8.1 mph - N/A   Clear
10:35 PM 66.6 °F - 21.4 °F 18% 30.00 in 10.0 mi WSW 9.2 mph - N/A   Clear
10:55 PM 64.2 °F - 21.4 °F 19% 30.00 in 10.0 mi WSW 10.4 mph - N/A   Clear
11:15 PM 64.9 °F - 21.9 °F 19% 30.00 in 10.0 mi WSW 11.5 mph - N/A   Clear
11:35 PM 65.3 °F - 21.9 °F 19% 30.00 in 10.0 mi WSW 10.4 mph - N/A   Clear
11:55 PM 64.9 °F - 22.1 °F 20% 30.00 in 10.0 mi WSW 9.2 mph - N/A   Clear